Ringgold, VA

12:14 AM EDT on September 26, 2016 (GMT -0400)
Danville Regional

Weather History for KDAN - March, 2014

Change the Weather History Date:

Wednesday, March 26, 2014

  Actual Average Record
Temperature  
Mean Temperature 36 °F 52 °F  
Max Temperature 45 °F 63 °F 80 °F (2003)
Min Temperature 27 °F 41 °F 25 °F (1971)
Degree Days  
Heating Degree Days 29 13  
Month to date heating degree days 578 448  
Since 1 July heating degree days 3583 3449  
Cooling Degree Days 0 0  
Month to date cooling degree days 0 0  
Year to date cooling degree days 0 0  
Moisture  
Dew Point 13 °F    
Average Humidity 42    
Maximum Humidity 61    
Minimum Humidity 22    
Precipitation  
Precipitation 0.00 in 0.17 in 1.00 in (1965)
Month to date precipitation 3.01 3.29  
Year to date precipitation 8.13 9.72  
Snow  
Snow 0.00 in - - ()
Month to date snowfall 5.5  
Since 1 July snowfall 13.4  
Snow Depth 0.00 in    
Sea Level Pressure  
Sea Level Pressure 30.17 in    
Wind  
Wind Speed 9 mph (NW)    
Max Wind Speed 20 mph    
Max Gust Speed 26 mph    
Visibility 10 miles    
Events      
T = Trace of Precipitation, MM = Missing Value Source: NWS Daily Summary

Daily Weather History Graph

Daily Weather History Graph

Search for Another Location

Airport or City:

Trip Planner

Search our weather history database for the weather conditions in past years. The results will help you decide how hot, cold, wet, or windy it might be!

Date:

Astronomy

Mar. 26, 2014 Rise Set
Actual Time 7:12 AM EDT 7:34 PM EDT
Civil Twilight 6:46 AM EDT 8:00 PM EDT
Nautical Twilight 6:16 AM EDT 8:30 PM EDT
Astronomical Twilight 5:45 AM EDT 9:01 PM EDT
Moon 4:12 AM EDT 3:17 PM EDT
Length of Visible Light 13h 13m
Length of Day
12h 22m
Waning Crescent, 22% of the Moon is Illuminated
Mar 26
Waning Crescent
Mar 30
New
Apr 7
First Quarter
Apr 15
Full
Apr 22
Last Quarter

Hourly Weather History & Observations

Time (EDT) Temp. Windchill Dew Point Humidity Pressure Visibility Wind Dir Wind Speed Gust Speed Precip Events Conditions
12:53 AM 33.1 °F 28.7 °F 21.0 °F 61% 29.98 in 10.0 mi WNW 4.6 mph - N/A   Clear
1:53 AM 34.0 °F 24.6 °F 19.9 °F 56% 29.99 in 10.0 mi NW 13.8 mph 21.9 mph N/A   Clear
2:53 AM 33.1 °F 24.4 °F 17.1 °F 52% 30.01 in 10.0 mi NW 11.5 mph - N/A   Clear
3:53 AM 33.1 °F 23.9 °F 17.1 °F 52% 30.03 in 10.0 mi NW 12.7 mph - N/A   Scattered Clouds
4:53 AM 30.9 °F 25.2 °F 16.0 °F 54% 30.05 in 10.0 mi NW 5.8 mph - N/A   Clear
5:53 AM 30.0 °F 20.5 °F 12.9 °F 49% 30.07 in 10.0 mi NW 11.5 mph - N/A   Clear
6:53 AM 30.0 °F 20.5 °F 10.9 °F 45% 30.11 in 10.0 mi NW 11.5 mph - N/A   Clear
7:53 AM 30.0 °F 23.2 °F 14.0 °F 51% 30.14 in 10.0 mi West 6.9 mph - N/A   Scattered Clouds
8:53 AM 30.9 °F 22.2 °F 12.0 °F 46% 30.18 in 10.0 mi WNW 10.4 mph 18.4 mph N/A   Partly Cloudy
9:53 AM 33.1 °F 25.5 °F 10.9 °F 40% 30.20 in 10.0 mi WNW 9.2 mph - N/A   Partly Cloudy
10:53 AM 35.1 °F 25.2 °F 12.0 °F 39% 30.22 in 10.0 mi WNW 16.1 mph 26.5 mph N/A   Partly Cloudy
11:53 AM 37.9 °F 29.2 °F 14.0 °F 38% 30.22 in 10.0 mi NW 15.0 mph 23.0 mph N/A   Clear
12:53 PM 39.0 °F 31.8 °F 15.1 °F 38% 30.23 in 10.0 mi WNW 11.5 mph 20.7 mph N/A   Clear
1:53 PM 39.9 °F 32.5 °F 15.1 °F 36% 30.21 in 10.0 mi West 12.7 mph 23.0 mph N/A   Clear
2:53 PM 42.1 °F 36.1 °F 12.9 °F 31% 30.20 in 10.0 mi NW 10.4 mph 20.7 mph N/A   Clear
3:53 PM 43.0 °F 38.2 °F 10.9 °F 27% 30.22 in 10.0 mi WNW 8.1 mph 23.0 mph N/A   Clear
4:53 PM 44.1 °F 37.1 °F 10.9 °F 26% 30.21 in 10.0 mi West 15.0 mph 20.7 mph N/A   Clear
5:53 PM 44.1 °F 39.0 °F 10.0 °F 25% 30.22 in 10.0 mi WNW 9.2 mph - N/A   Clear
6:53 PM 43.0 °F 36.8 °F 7.0 °F 23% 30.23 in 10.0 mi WNW 11.5 mph 19.6 mph N/A   Clear
7:53 PM 41.0 °F 38.0 °F 8.1 °F 26% 30.25 in 10.0 mi NW 4.6 mph - N/A   Clear
8:53 PM 36.0 °F - 12.9 °F 39% 30.27 in 10.0 mi Calm Calm - N/A   Clear
9:53 PM 36.0 °F 32.1 °F 12.0 °F 37% 30.29 in 10.0 mi NNW 4.6 mph - N/A   Clear
10:53 PM 30.0 °F - 12.0 °F 47% 30.31 in 10.0 mi Calm Calm - N/A   Clear
11:53 PM 33.1 °F 28.7 °F 12.9 °F 43% 30.32 in 10.0 mi North 4.6 mph - N/A   Clear